Greer, SC

12:13 PM EST on February 24, 2017 (GMT -0500)
Greenville-Spartanburg International

Weather History for KGSP - December, 2007

Change the Weather History Date:

Friday, December 28, 2007

  Actual Average Record
Temperature  
Mean Temperature 51 °F 42 °F  
Max Temperature 52 °F 52 °F 75 °F (1971)
Min Temperature 49 °F 32 °F 9 °F (1925)
Degree Days  
Heating Degree Days 14 23  
Month to date heating degree days 434 584  
Since 1 July heating degree days 894 1137  
Cooling Degree Days 0 0  
Month to date cooling degree days 7 0  
Year to date cooling degree days 2087 1715  
Moisture  
Dew Point 47 °F    
Average Humidity 87    
Maximum Humidity 93    
Minimum Humidity 80    
Precipitation  
Precipitation 0.79 in 0.12 in 1.82 in (1926)
Month to date precipitation 3.60 3.75  
Year to date precipitation 29.53 46.83  
Snow  
Snow 0.00 in 0.00 in 1.50 in (1935)
Month to date snowfall T 0.3  
Since 1 July snowfall T 0.4  
Snow Depth 0.00 in    
Sea Level Pressure  
Sea Level Pressure 30.13 in    
Wind  
Wind Speed 5 mph (NE)    
Max Wind Speed 12 mph    
Max Gust Speed 14 mph    
Visibility 5 miles    
Events Rain , Thunderstorm    
T = Trace of Precipitation, MM = Missing Value Source: NWS Daily Summary

Daily Weather History Graph

Daily Weather History Graph

Search for Another Location

Airport or City:

Trip Planner

Search our weather history database for the weather conditions in past years. The results will help you decide how hot, cold, wet, or windy it might be!

Date:

Astronomy

Dec. 28, 2007 Rise Set
Actual Time 7:35 AM EST 5:25 PM EST
Civil Twilight 7:07 AM EST 5:53 PM EST
Nautical Twilight 6:35 AM EST 6:25 PM EST
Astronomical Twilight 6:05 AM EST 6:55 PM EST
Moon 10:37 PM EST (12/28) 10:56 AM EST (12/28)
Length of Visible Light 10h 45m
Length of Day
9h 49m
Waning Gibbous, 75% of the Moon is Illuminated
Dec 28
Waning Gibbous
Dec 31
Last Quarter
Jan 8
New
Jan 15
First Quarter
Jan 22
Full

Hourly Weather History & Observations

Time (EST) Temp. Dew Point Humidity Pressure Visibility Wind Dir Wind Speed Gust Speed Precip Events Conditions
12:20 AM 48.2 °F 44.6 °F 87% 30.17 in 10.0 mi Calm Calm - N/A   Overcast
12:39 AM 50.0 °F 44.6 °F 82% 30.18 in 10.0 mi Calm Calm - N/A   Overcast
12:53 AM 50.0 °F 45.0 °F 83% 30.17 in 10.0 mi Calm Calm - N/A   Overcast
1:40 AM 50.0 °F 44.6 °F 82% 30.18 in 10.0 mi Calm Calm - N/A   Overcast
1:53 AM 50.0 °F 45.0 °F 83% 30.18 in 10.0 mi Calm Calm - N/A   Overcast
2:53 AM 50.0 °F 45.0 °F 83% 30.19 in 10.0 mi Calm Calm - N/A   Overcast
3:30 AM 50.0 °F 46.4 °F 87% 30.20 in 10.0 mi Calm Calm - N/A   Overcast
3:53 AM 50.0 °F 45.0 °F 83% 30.19 in 10.0 mi Calm Calm - N/A   Overcast
4:53 AM 50.0 °F 46.0 °F 86% 30.19 in 10.0 mi Calm Calm - N/A   Overcast
5:53 AM 50.0 °F 46.9 °F 89% 30.19 in 6.0 mi Calm Calm - 0.00 in Rain Light Rain
6:06 AM 50.0 °F 46.4 °F 87% 30.18 in 7.0 mi Calm Calm - 0.00 in Rain Light Rain
6:36 AM 50.0 °F 46.4 °F 87% 30.18 in 7.0 mi East 3.5 mph - 0.00 in   Overcast
6:53 AM 50.0 °F 46.9 °F 89% 30.17 in 6.0 mi Calm Calm - 0.00 in   Overcast
7:53 AM 50.0 °F 46.9 °F 89% 30.18 in 6.0 mi ENE 4.6 mph - N/A   Overcast
8:26 AM 51.8 °F 46.4 °F 82% 30.19 in 6.0 mi ENE 4.6 mph - N/A   Overcast
8:53 AM 51.1 °F 46.9 °F 86% 30.19 in 5.0 mi East 5.8 mph - N/A   Overcast
9:53 AM 51.1 °F 46.9 °F 86% 30.21 in 5.0 mi North 5.8 mph - N/A   Overcast
10:15 AM 51.8 °F 46.4 °F 82% 30.20 in 2.0 mi North 6.9 mph - 0.00 in Rain Light Rain
10:24 AM 50.0 °F 46.4 °F 87% 30.20 in 2.0 mi North 6.9 mph - 0.00 in Rain Light Rain
10:41 AM 48.2 °F 46.4 °F 93% 30.22 in 1.2 mi NW 3.5 mph - 0.01 in Rain Heavy Rain
10:53 AM 48.9 °F 46.9 °F 93% 30.21 in 1.2 mi North 3.5 mph - 0.04 in Rain Rain
11:09 AM 48.2 °F 46.4 °F 93% 30.18 in 1.2 mi NE 6.9 mph - 0.07 in Rain Heavy Rain
11:53 AM 48.9 °F 46.9 °F 93% 30.16 in 1.0 mi ENE 8.1 mph - 0.22 in Rain Heavy Rain
12:37 PM 50.0 °F 48.2 °F 94% 30.13 in 2.0 mi NNW 5.8 mph - 0.13 in Rain Light Rain
12:53 PM 50.0 °F 48.0 °F 93% 30.12 in 2.0 mi East 5.8 mph - 0.13 in Rain Light Rain
1:53 PM 50.0 °F 48.0 °F 93% 30.10 in 2.0 mi Calm Calm - 0.01 in Rain Rain
2:00 PM 50.0 °F 48.2 °F 94% 30.10 in 1.8 mi East 3.5 mph - 0.02 in Rain Light Rain
2:53 PM 51.1 °F 48.9 °F 92% 30.09 in 2.5 mi NE 5.8 mph - 0.03 in   Overcast
3:24 PM 51.8 °F 48.2 °F 88% 30.09 in 1.5 mi NE 6.9 mph - N/A   Overcast
3:38 PM 50.0 °F 48.2 °F 94% 30.08 in 1.0 mi ENE 5.8 mph - N/A   Overcast
3:53 PM 51.1 °F 48.9 °F 92% 30.08 in 1.0 mi NNE 6.9 mph - N/A   Overcast
4:09 PM 50.0 °F 48.2 °F 94% 30.08 in 0.8 mi NE 8.1 mph - 0.00 in Rain Light Rain
4:53 PM 50.0 °F 48.0 °F 93% 30.08 in 0.8 mi NE 8.1 mph - 0.02 in Rain Light Rain
5:39 PM 50.0 °F 48.2 °F 94% 30.08 in 0.8 mi NNW 6.9 mph - 0.02 in Rain , Thunderstorm Light Thunderstorms and Rain
5:53 PM 50.0 °F 48.0 °F 93% 30.09 in 0.8 mi North 6.9 mph - 0.15 in Rain , Thunderstorm Heavy Thunderstorms and Rain
6:00 PM 50.0 °F 48.2 °F 94% 30.08 in 1.2 mi North 10.4 mph - 0.04 in Rain , Thunderstorm Thunderstorms and Rain
6:12 PM 50.0 °F 48.2 °F 94% 30.07 in 1.2 mi NNE 10.4 mph - 0.05 in Rain , Thunderstorm Thunderstorms and Rain
6:22 PM 50.0 °F 48.2 °F 94% 30.08 in 2.5 mi NE 10.4 mph - 0.07 in Rain Light Rain
6:53 PM 50.0 °F 48.0 °F 93% 30.07 in 9.0 mi NE 9.2 mph - 0.08 in   Overcast
7:50 PM 50.0 °F 48.2 °F 94% 30.08 in 10.0 mi NNE 6.9 mph - 0.00 in Rain Light Rain
7:53 PM 50.0 °F 48.0 °F 93% 30.08 in 10.0 mi NNE 8.1 mph - 0.00 in Rain Light Rain
8:45 PM 50.0 °F 48.2 °F 94% 30.07 in 10.0 mi NE 8.1 mph - N/A   Overcast
8:53 PM 50.0 °F 48.0 °F 93% 30.06 in 9.0 mi NNE 8.1 mph - N/A   Overcast
9:53 PM 50.0 °F 48.0 °F 93% 30.05 in 10.0 mi East 9.2 mph - 0.00 in   Overcast
10:53 PM 50.0 °F 48.0 °F 93% 30.04 in 9.0 mi Variable 3.5 mph - 0.00 in   Overcast
11:53 PM 50.0 °F 48.0 °F 93% 30.03 in 2.5 mi NNE 4.6 mph - 0.04 in Rain Rain